TV
NORAD ID: 25358
Int'l Code: 1998-035A
Perigee: 35,781.9 km
Apogee: 35,805.0 km
Inclination: 2.7 °
Period: 1,436.1 minutes
Semi major axis: 42164 km
Launch date: June 10, 1998
Source: Norway (NOR)
Comments: 14 Ku-band; Nordic region, central and eastern Europe.
Two Line Element Set (TLE):
1 25358U 98035A 13143.11822520 -.00000037 00000-0 10000-3 0 2191
2 25358 002.6522 069.9412 0002741 352.4556 216.7477 01.00272739 54854
Source: AFSPC
NASA's NSSDC Master Catalog entry for THOR 3